User: anonymous   Login
Location: Caltech
(34.1382°N, 118.1253°W)
Time: 02:26:22
(UTC-07:00)
Language:

Iridium 14 - Orbit

View from above orbital plane
View from above orbital plane
View from above satellite
View from above satellite

Ground track
Ground track

The orbit data is extracted from the following two-line orbital elements,

1 25777U 99032A   17296.80336788 +.00000154 +00000-0 +48095-4 0  9999
2 25777 086.3995 170.2292 0001923 080.7591 279.3822 14.34219397973036
Epoch (UTC): 23 October 2017 19:16:50
Eccentricity: 0.0001923
inclination: 86.3995°
perigee height: 776 km
apogee height: 779 km
right ascension of ascending node: 170.2292°
argument of perigee: 80.7591°
revolutions per day: 14.34219397
mean anomaly at epoch: 279.3822°
orbit number at epoch: 97303

The dashed part of the orbit path shows where the satellite is in the earth's shadow,  

DLR